Location: Halfweg
(53.1000°N, 6.6000°E)
Time: 20:57:19
(UTC+00:00)

Nadezhda 4 Rocket - Pass Details

Date: 15 May 2026
Orbit: 948 x 992 km, 82.9° (Epoch: 10 June)

Event Time Altitude Azimuth Distance (km) Brightness Sun altitude
Rises 20:21:09 0° 351° (N) 3,635 8.0 -7.2°
Reaches altitude 10° 20:23:46 10° 358° (N) 2,685 7.1 -7.5°
Maximum altitude 20:29:40 46° 71° (ENE) 1,254 4.5 -8.1°
Enters shadow 20:35:27 10° 144° (SE) 2,654 5.6 -8.6°
